RH
79 53 49 50 52 56 57 48 46 32 26 25 24 21 16 23 27 31 29 24 24 22 25 31 31 29 27 24 24 24 40 41 28 24 27 17 16 17 16 15 16 17 18 22 29
94 76 53 48 50 52 57 64 62 38 29 25 24 20 17 26 29 28 26 24 26 22 23 25 28 26 23 24 23 26 39 32 20 14 17 18 16 16 16 16 19 22 20 23 32
97 82 72 49 42 47 50 62 63 51 32 26 25 21 18 29 31 25 26 24 26 23 20 28 28 23 20 20 24 28 31 26 21 18 17 17 17 16 17 19 15 16 21 30 40
100 87 79 70 47 40 48 52 59 58 37 30 26 22 18 31 35 28 27 23 26 22 22 31 24 20 21 22 22 24 23 22 17 20 20 19 17 18 18 15 14 16 20 27 33
99 96 85 76 65 47 45 55 57 56 45 32 29 24 20 34 29 26 26 23 26 21 20 28 22 21 23 22 21 24 20 20 18 18 20 19 19 20 17 15 17 18 20 22 23
92 97 94 83 74 66 52 56 60 60 37 37 32 26 22 44 21 28 27 25 25 22 18 25 21 21 22 22 22 20 20 20 19 18 19 21 20 20 17 16 18 20 20 21 22
95 95 98 91 84 77 65 60 64 63 40 39 34 27 28 16 21 29 30 28 27 24 18 22 22 21 22 24 23 21 24 25 22 22 21 19 22 25 16 18 20 22 23 24 24
89 96 100 97 95 75 65 66 67 66 46 41 36 28 29 15 13 33 34 29 28 24 20 23 22 22 22 23 27 26 26 29 19 22 21 19 21 19 16 19 21 23 25 26 26
100 97 99 100 96 78 71 70 75 66 52 44 34 31 29 18 15 18 31 28 31 26 25 23 22 24 24 34 38 36 33 27 25 23 25 22 24 18 21 21 23 24 25 26 27
100 100 98 99 100 93 93 79 83 73 58 42 38 42 22 21 19 15 27 28 31 30 25 24 24 35 37 38 46 33 32 29 29 23 25 26 30 26 20 23 22 24 26 27 27
100 100 100 100 100 100 100 100 81 56 53 30 27 24 25 27 25 25 23 29 30 26 33 28 36 42 34 32 32 28 32 38 32 22 22 28 30 27 21 23 25 23 25 28 28
96 100 100 98 100 100 100 99 56 38 40 34 29 30 25 28 26 28 30 32 28 36 34 37 44 32 29 33 34 37 39 36 29 24 24 28 29 26 24 24 21 21 22 25 30
84 99 100 100 100 100 98 83 54 36 43 33 29 27 26 26 30 27 29 31 31 38 41 43 34 32 33 38 39 37 34 35 34 25 26 30 34 27 24 25 21 21 20 22 25
86 78 99 100 100 100 99 84 53 39 41 41 38 29 30 27 32 26 28 30 33 39 42 39 31 35 39 39 38 45 31 28 25 28 36 27 43 30 24 29 31 27 26 23 27
80 84 88 100 100 100 97 89 60 47 95 50 40 29 23 27 28 29 25 30 38 38 40 42 38 39 38 37 33 39 26 26 26 30 36 36 42 32 29 29 28 32 31 27 27
78 84 86 99 100 97 94 80 72 83 94 53 42 40 43 33 33 33 29 30 29 36 35 37 32 36 37 33 27 28 30 37 47 44 50 36 40 34 24 23 26 32 31 30 31
75 80 90 100 99 98 95 82 94 96 42 50 55 43 42 47 42 36 39 40 45 52 52 37 33 24 24 30 27 28 34 50 46 55 52 39 42 36 23 23 29 26 27 30 32
84 84 82 98 100 100 87 85 98 62 60 44 47 46 46 45 43 41 46 46 42 42 55 56 55 33 26 28 33 35 35 48 44 55 52 41 49 34 25 22 24 25 26 30 33
71 89 98 74 94 100 90 97 80 58 44 50 45 51 49 46 45 41 49 40 41 41 46 58 54 31 29 26 27 35 38 30 41 44 47 39 32 24 22 25 29 35 35 33 32
86 100 95 76 93 100 89 94 65 41 38 44 53 50 58 56 51 47 51 41 42 37 31 41 48 32 30 27 29 31 31 38 47 44 47 41 36 29 22 21 27 36 39 35 33
98 98 94 61 99 99 94 86 63 36 34 41 52 58 51 56 52 50 48 38 36 41 32 38 37 38 32 36 39 37 37 40 40 47 43 40 36 28 22 22 25 29 30 30 30
100 98 74 58 98 94 95 65 37 42 36 37 43 47 52 54 57 53 51 41 34 35 39 33 39 52 40 30 31 33 37 37 48 43 54 49 41 21 22 25 24 21 21 23 26
98 97 74 98 98 98 82 70 40 40 45 41 40 38 43 52 51 50 49 38 36 38 41 36 47 51 42 38 34 36 36 35 36 40 49 47 40 23 26 23 22 20 17 18 22
97 99 85 99 83 78 86 72 53 37 43 37 40 40 44 46 40 53 52 38 37 37 30 31 46 44 52 40 36 39 38 35 34 52 39 48 32 23 23 21 21 20 18 18 18
100 99 99 100 99 76 68 64 56 54 42 36 41 40 42 52 46 49 47 44 40 37 45 37 48 45 39 33 37 39 39 37 40 33 42 32 34 26 23 26 22 18 18 19 19
99 99 100 97 93 84 76 67 50 50 41 42 47 44 39 48 40 51 49 45 47 42 46 42 46 44 43 40 37 36 36 42 38 35 37 35 37 26 23 22 21 20 20 19 18
99 98 98 96 96 92 86 69 49 50 44 33 40 42 41 40 32 31 30 31 38 45 47 48 51 51 54 39 43 48 38 39 39 38 34 41 28 24 26 28 23 19 20 20 21
Wind_Speed
20 19 19 20 19 18 15 13 12 12 12 11 12 12 13 12 12 13 13 7 4 5 7 8 7 3 5 4 3 3 4 2 4 4 2 2 2 2 1 4 4 4 4 5 15
25 22 20 20 21 19 18 18 17 14 13 12 12 13 12 13 13 16 10 8 7 7 7 7 8 4 3 3 2 4 3 6 4 2 2 1 1 2 3 2 3 5 7 9 17
27 25 23 22 21 21 19 20 19 17 14 13 12 12 11 11 13 9 9 12 10 7 7 6 4 5 3 2 2 3 4 4 3 4 3 2 3 3 2 4 10 12 11 12 18
29 27 25 23 22 23 22 21 20 18 16 14 13 12 10 9 5 2 4 14 14 10 9 6 3 4 2 2 2 1 3 5 2 5 3 2 3 3 9 12 6 9 12 14 16
30 29 26 24 23 22 22 21 21 18 17 14 13 12 9 9 16 6 4 13 16 13 12 7 5 4 2 2 2 1 3 5 7 6 10 6 9 8 11 12 12 12 15 15 14
34 28 27 25 24 23 22 22 20 18 15 14 12 12 11 7 10 12 6 10 17 14 13 10 4 4 3 2 4 3 3 5 7 12 9 7 5 4 5 10 13 14 15 13 12
31 30 30 25 24 24 23 22 21 18 15 13 12 13 15 22 7 8 8 10 15 13 12 12 8 6 5 1 1 1 4 6 6 4 6 9 7 9 17 9 15 17 14 12 11
32 32 28 28 23 22 22 21 20 17 15 13 12 12 12 11 20 16 10 8 13 11 11 9 9 6 3 5 5 4 4 4 3 4 1 7 8 6 6 14 18 18 16 13 11
28 31 32 30 24 21 21 19 18 15 14 12 11 9 12 11 22 20 16 8 8 12 10 8 9 4 5 5 4 6 3 3 7 3 2 3 6 2 2 11 16 19 18 15 11
20 34 34 32 27 22 20 18 15 13 12 10 9 4 17 6 11 17 20 14 8 13 10 8 5 3 3 3 5 4 3 4 5 3 2 3 10 10 14 10 19 19 19 18 14
18 28 34 33 31 26 21 15 7 5 18 15 11 12 3 4 8 10 20 16 12 12 6 3 3 6 10 7 5 4 3 6 5 5 3 7 9 12 16 15 21 24 24 23 18
28 21 30 33 36 31 26 23 18 4 8 37 17 21 13 3 7 13 18 16 9 6 6 3 7 9 5 4 4 3 3 6 6 3 4 7 11 11 8 13 27 32 30 29 22
34 28 28 48 36 37 37 36 16 10 5 6 42 26 13 20 8 15 20 17 5 6 7 8 4 9 7 4 5 4 4 4 7 4 2 6 8 5 5 11 20 25 32 33 30
31 37 28 21 30 44 42 33 12 12 3 6 9 20 19 13 7 15 21 19 4 12 8 6 5 5 5 5 7 5 6 6 4 1 4 2 5 7 7 9 6 16 27 33 32
30 31 33 26 19 46 38 32 14 8 4 9 9 11 18 21 9 17 22 14 9 7 7 8 7 6 4 7 7 8 5 4 1 2 2 2 1 7 2 8 10 11 24 30 33
29 30 32 25 32 38 40 34 16 4 10 5 9 9 8 11 10 10 12 15 9 6 1 8 4 7 9 4 8 5 5 5 4 2 2 6 6 5 4 5 5 4 16 25 32
27 27 30 28 14 41 43 43 5 7 2 7 7 7 7 7 6 7 8 7 8 6 5 2 3 2 4 5 2 4 5 2 3 1 6 1 2 9 6 6 6 6 11 22 31
28 27 31 36 20 36 58 17 6 13 9 3 6 10 8 7 6 6 9 9 5 6 5 7 4 8 4 7 7 6 7 5 6 3 4 2 5 6 6 4 8 12 10 20 30
27 30 31 48 33 22 48 12 14 8 16 9 7 6 5 6 7 5 8 14 12 8 8 6 6 1 4 4 9 5 4 5 4 0 1 4 8 10 4 5 3 1 8 20 30
23 29 39 50 28 39 18 14 9 7 19 9 8 6 8 10 7 9 9 7 7 8 9 7 2 2 4 4 3 8 7 2 2 3 4 5 5 7 5 4 1 3 10 15 24
19 13 21 46 35 37 14 13 8 9 18 8 7 6 7 9 9 8 10 2 13 12 9 6 4 1 4 5 9 3 3 3 4 4 5 2 6 6 4 5 6 7 10 13 20
24 6 15 27 11 12 10 12 12 7 15 3 6 5 8 10 6 7 11 9 19 19 14 7 5 5 8 1 3 4 7 7 4 5 3 3 6 3 5 7 5 6 4 9 16
9 10 16 45 10 14 8 10 7 15 8 7 5 4 4 8 6 6 7 7 16 9 12 8 4 3 1 3 2 4 4 4 4 3 6 5 5 3 4 5 4 5 4 5 10
10 4 11 27 26 22 15 22 16 17 7 6 6 6 6 4 2 9 8 4 15 13 21 19 5 10 11 6 6 4 6 9 8 4 8 7 8 6 5 5 5 7 6 8 10
12 4 6 4 7 23 22 26 24 9 6 10 2 8 9 6 4 5 4 4 3 7 8 7 7 7 10 6 6 7 6 12 10 16 8 15 11 18 14 8 13 20 16 14 13
5 6 6 3 15 22 25 25 29 13 17 13 9 9 6 9 8 9 9 5 6 3 7 2 4 7 6 8 8 5 8 8 10 4 8 13 10 8 11 11 15 22 17 15 17
11 11 7 7 9 18 21 27 32 12 0 16 13 7 6 9 12 13 17 17 13 10 7 8 6 4 7 6 6 7 8 8 6 5 7 7 18 3 5 8 13 16 15 17 14
Wind_Direction
266 269 259 256 257 254 260 272 284 284 287 288 292 296 295 283 272 268 256 241 232 209 189 186 192 176 145 117 126 117 65 160 196 163 251 0 124 140 125 170 192 213 226 203 193
262 265 262 258 254 257 257 265 275 282 282 282 288 293 296 288 283 258 231 235 222 204 196 182 185 199 173 133 123 91 110 215 210 193 220 164 142 187 202 194 239 232 232 216 192
257 260 262 262 258 255 256 260 267 270 275 276 282 287 292 292 301 263 235 216 206 201 188 186 201 197 163 154 155 144 175 203 254 238 217 206 242 224 203 248 235 233 211 188 186
252 256 259 260 260 257 254 257 262 263 268 268 273 279 283 278 257 144 224 202 202 204 194 194 206 165 117 166 171 100 226 183 227 227 212 227 252 247 224 247 255 230 212 193 198
251 253 255 259 258 257 257 256 260 264 261 261 263 271 271 258 248 277 319 204 204 204 204 205 191 163 173 175 111 163 253 220 247 228 238 239 236 238 249 253 242 228 205 212 218
248 244 249 254 257 257 255 256 258 262 255 254 257 264 256 249 256 256 277 199 202 209 203 205 211 180 155 178 157 224 241 262 269 256 237 210 245 207 240 229 219 207 211 214 228
244 247 246 247 254 255 252 254 256 259 251 249 252 256 253 246 248 231 225 192 205 214 210 206 212 183 156 142 239 352 316 324 252 248 234 215 288 231 253 231 210 208 211 217 228
241 240 248 246 251 247 247 250 251 256 245 242 247 257 257 262 236 224 194 192 202 210 216 213 223 204 177 136 35 41 53 343 279 169 273 163 268 273 253 227 218 212 216 220 232
241 234 245 243 243 241 244 247 249 250 237 233 238 241 264 244 239 221 212 206 212 206 207 202 191 176 138 98 17 21 254 253 310 216 141 165 264 247 296 219 221 214 218 222 232
248 232 231 239 234 235 239 238 240 238 216 214 224 255 248 239 237 224 213 219 212 197 184 186 165 98 42 109 211 210 236 256 252 276 235 226 263 275 260 224 228 226 224 226 227
278 230 232 240 229 226 228 205 193 215 207 202 210 204 201 232 215 215 210 201 197 174 165 166 132 195 197 188 186 167 202 247 257 254 236 245 254 260 266 229 233 228 224 225 222
256 262 229 242 226 221 223 200 200 194 237 224 227 231 227 192 203 211 196 177 175 182 120 61 216 219 180 157 163 169 214 263 278 267 184 284 270 261 242 232 228 226 224 222 214
262 259 230 226 227 215 216 219 209 218 257 237 223 232 224 223 222 203 191 189 152 151 186 179 224 164 157 152 170 206 189 242 242 322 265 324 284 279 280 252 246 238 232 223 214
273 255 254 265 232 208 211 217 187 195 269 262 200 232 215 198 238 206 198 186 178 186 164 218 218 155 166 188 154 232 212 224 245 325 247 65 286 297 266 276 249 241 226 223 211
267 273 247 256 244 201 205 205 169 128 221 224 191 207 201 187 158 200 205 190 161 166 136 224 182 176 167 199 158 232 158 189 271 224 353 276 278 265 322 288 277 235 223 216 210
266 268 252 267 222 205 203 168 146 105 233 231 146 161 130 184 177 143 170 196 182 133 175 196 201 163 203 185 178 138 87 54 58 93 294 239 179 279 233 218 278 290 227 215 203
268 263 257 247 254 197 179 145 126 199 153 192 176 162 150 160 182 160 156 167 165 149 162 161 201 195 142 102 81 116 102 287 316 321 234 136 152 244 264 255 238 265 230 210 201
258 259 259 237 231 181 154 146 170 207 216 127 136 122 166 135 204 170 141 181 244 126 141 166 225 173 195 169 178 182 162 165 227 214 273 90 239 251 229 255 282 272 261 207 197
250 262 259 230 241 225 151 169 199 164 184 146 84 129 170 194 144 139 184 206 189 172 159 161 232 213 177 154 151 189 171 191 107 37 50 239 287 298 261 284 331 178 188 197 198
250 244 257 226 252 197 163 187 206 190 161 155 150 157 166 176 142 158 169 191 189 177 149 202 145 197 158 119 52 159 166 113 14 214 247 279 269 241 294 294 312 225 208 201 203
238 245 243 214 215 182 197 189 196 219 168 145 158 147 166 170 159 184 198 248 182 188 153 141 114 272 104 197 178 142 177 65 135 148 196 246 260 222 254 280 244 240 224 211 209
225 236 212 211 170 191 198 179 168 186 198 140 123 117 154 160 143 178 195 211 184 159 185 178 152 165 200 246 198 170 174 149 149 226 231 161 273 259 233 251 249 261 232 224 223
193 230 214 192 175 188 175 215 203 183 183 173 151 146 166 151 144 178 186 216 159 151 163 172 198 125 52 357 343 186 196 161 126 92 193 173 262 315 278 285 270 260 272 261 240
205 224 214 219 203 178 177 193 197 194 168 180 134 116 116 132 48 181 170 176 179 177 187 165 152 194 210 214 149 187 198 197 183 151 232 215 257 274 275 284 292 279 282 272 250
194 228 146 194 221 189 179 177 186 179 193 165 102 174 142 125 106 144 138 116 150 189 149 143 188 188 218 197 179 188 196 196 191 225 207 249 227 247 257 255 268 287 279 255 249
234 190 183 242 220 192 186 183 186 187 173 192 146 168 142 146 179 182 137 166 172 168 154 188 203 164 230 211 206 208 219 183 225 246 245 250 274 247 243 247 249 254 263 256 265
269 266 254 318 205 186 192 183 196 146 148 182 141 121 149 186 170 179 170 168 158 146 167 149 136 125 239 188 185 244 206 192 193 197 192 211 242 203 242 226 247 264 259 256 259